IU2GFL-13 Weather Reports


time (UTC)temp
C
wind
direction
speed
KPH
gust
KPH
rain 1hr
cm
rain 24hr
cm
rain mn
cm
humidity
%
barometer
mb
20260506170821 12 0.0 0.0 0.00 0.00 0.00 84 985.8
20260506164816 12 0.0 0.0 0.00 0.00 0.00 82 985.9
20260506162812 12 0.0 0.0 0.00 0.00 0.00 77 985.2
20260506160807 14 0.0 0.0 0.00 0.00 0.00 71 985.6
20260506154803 18 0.0 0.0 0.00 0.00 0.00 71 984.6
20260506152758 18 0.0 0.0 0.00 0.00 0.00 69 984.2
20260506150753 20 0.0 0.0 0.00 0.00 0.00 66 984.3
20260506144749 20 0.0 0.0 0.00 0.00 0.00 66 984.7
20260506142744 18 0.0 0.0 0.00 0.00 0.00 71 984.8
20260506140739 20 0.0 0.0 0.00 0.00 0.00 64 985.3
20260506134734 21 0.0 0.0 0.00 0.00 0.00 61 985.5
20260506132724 20 0.0 0.0 0.00 0.00 0.00 65 986.0
20260506130719 19 0.0 0.0 0.00 0.00 0.00 66 986.1
20260506122710 20 0.0 0.0 0.00 0.00 0.00 65 986.2
20260506120705 18 0.0 0.0 0.00 0.00 0.00 68 986.3
20260506114701 19 0.0 0.0 0.00 0.00 0.00 67 986.5
20260506112656 18 0.0 0.0 0.00 0.00 0.00 68 986.4
20260506110652 20 0.0 0.0 0.00 0.00 0.00 68 986.4
20260506104647 18 0.0 0.0 0.00 0.00 0.00 71 986.7
20260506102642 17 0.0 0.0 0.00 0.00 0.00 74 986.9
20260506100638 16 0.0 0.0 0.00 0.00 0.00 77 986.9
20260506094633 17 0.0 0.0 0.00 0.00 0.00 77 986.8
20260506090624 15 0.0 0.0 0.00 0.00 0.00 86 986.9
20260506084620 14 0.0 0.0 0.00 0.00 0.00 87 986.4
20260506080611 15 0.0 0.0 0.00 0.00 0.00 85 986.4
20260506072601 15 0.0 0.0 0.00 0.00 0.00 85 986.6
20260506070557 15 0.0 0.0 0.00 0.00 0.00 88 987.0
20260506060543 14 0.0 0.0 0.00 0.00 0.00 90 986.9
20260506050529 13 0.0 0.0 0.00 0.00 0.00 91 987.4
20260506044525 13 0.0 0.0 0.00 0.00 0.00 91 987.2
20260506042520 13 0.0 0.0 0.00 0.00 0.00 91 987.4
20260506034511 13 0.0 0.0 0.00 0.00 0.00 90 987.3
20260506032506 13 0.0 0.0 0.00 0.00 0.00 90 987.4
20260506030501 13 0.0 0.0 0.00 0.00 0.00 89 987.6
20260506022452 14 0.0 0.0 0.00 0.00 0.00 88 988.2
20260506020448 13 0.0 0.0 0.00 0.00 0.00 88 988.3
20260506014443 14 0.0 0.0 0.00 0.00 0.00 88 988.3
20260506012438 14 0.0 0.0 0.00 0.00 0.00 88 988.4
20260506010434 14 0.0 0.0 0.00 0.00 0.00 88 988.5
20260506004429 14 0.0 0.0 0.00 0.00 0.00 88 988.7
20260506002425 14 0.0 0.0 0.00 0.00 0.00 88 988.9
20260506000420 14 0.0 0.0 0.00 0.00 0.00 88 989.2
20260505234416 14 0.0 0.0 0.00 0.00 0.00 88 989.3
20260505232411 13 0.0 0.0 0.00 0.00 0.00 87 989.2
20260505230406 14 0.0 0.0 0.00 0.00 0.00 87 989.3
20260505224402 14 0.0 0.0 0.00 0.00 0.00 87 989.5
20260505222357 14 0.0 0.0 0.00 0.00 0.00 88 989.5
20260505220353 14 0.0 0.0 0.00 0.00 0.00 87 989.6
20260505214348 14 0.0 0.0 0.00 0.00 0.00 87 989.8
20260505212344 14 0.0 0.0 0.00 0.00 0.00 87 990.0
20260505210339 14 0.0 0.0 0.00 0.00 0.00 87 990.1
20260505204334 14 0.0 0.0 0.00 0.00 0.00 86 990.2
20260505202330 15 0.0 0.0 0.00 0.00 0.00 86 990.2
20260505200325 14 0.0 0.0 0.00 0.00 0.00 86 990.1
20260505194320 14 0.0 0.0 0.00 0.00 0.00 86 990.0
20260505192316 14 0.0 0.0 0.00 0.00 0.00 86 989.9
20260505190311 14 0.0 0.0 0.00 0.00 0.00 86 989.8
20260505184307 14 0.0 0.0 0.00 0.00 0.00 85 989.8
20260505182305 14 0.0 0.0 0.00 0.00 0.00 85 989.7
20260505180258 15 0.0 0.0 0.00 0.00 0.00 84 989.7
20260505174253 15 0.0 0.0 0.00 0.00 0.00 83 989.7
20260505172249 15 0.0 0.0 0.00 0.00 0.00 83 989.7